This demonstration page uses our WeatherBlox Daily Observations layout. Learn more.

39.92423, -83.80882

Hourly Observations for April 28, 2015

Temp ( °F °C ) Dew Point ( °F °C ) Humidity (%) Winds ( mph kmh ) Pressure ( in mb ) Visibility ( mi km ) Precip ( " mm )
12:56 am 00:56 Clear 40 4.4 35 1.6 82 82 NW 3 6 30.1 1019 7 11.26538 0 0
1:56 am 01:56 Clear 39 3.8 35 1.6 86 86 Calm 30.1 1019 7 11.26538 0 0
2:56 am 02:56 Clear with Mist and Fog 37 2.7 34 1.1 89 89 NNW 5 7 30.09 1019 6 9.65604 0 0
3:56 am 03:56 Clear 37 2.7 35 1.6 93 93 N 5 7 30.09 1019 7 11.26538 0 0
4:56 am 04:56 Clear with Mist and Fog 36 2.2 34 1.1 93 93 NW 3 6 30.1 1019 6 9.65604 0 0
5:56 am 05:56 Clear with Mist and Fog 35 1.6 34 1.1 97 97 NW 3 6 30.12 1020 6 9.65604 0 0
6:56 am 06:56 Sunny with Mist and Fog 33 0.5 32 0 96 96 Calm 30.13 1020 4 6.43736 0 0
7:56 am 07:56 Sunny with Mist and Fog 37 2.7 37 2.7 100 100 NW 3 6 30.15 1021 4 6.43736 0 0
8:56 am 08:56 Hazy 46 7.7 38 3.3 74 74 NE 7 11 30.15 1021 6 9.65604 0 0
9:56 am 09:56 Hazy 50 10 36 2.2 59 59 NE 7 11 30.16 1021 6 9.65604 0 0
10:56 am 10:56 Hazy 53 11.6 37 2.7 55 55 NE 6 9 30.15 1021 6 9.65604 0 0
11:56 am 11:56 Sunny 55 12.7 38 3.3 53 53 VRB 5 7 30.14 1021 7 11.26538 0 0
12:56 pm 12:56 Hazy 56 13.3 38 3.3 51 51 NNE 6 9 30.11 1020 6 9.65604 0 0
1:56 pm 13:56 Hazy 60 15.5 40 4.4 48 48 ENE 12 19 30.08 1019 6 9.65604 0 0
2:56 pm 14:56 Hazy 61 16.1 40 4.4 46 46 NE 9 15 30.05 1018 6 9.65604 0 0
3:56 pm 15:56 Hazy 63 17.2 40 4.4 43 43 NNE 14 22 30.01 1016 6 9.65604 0 0
4:56 pm 16:56 Sunny 63 17.2 40 4.4 43 43 NE 7 11 29.99 1016 7 11.26538 0 0
5:56 pm 17:56 Sunny 63 17.2 40 4.4 43 43 NE 8 13 29.99 1016 7 11.26538 0 0
6:56 pm 18:56 Hazy 61 16.1 41 5 48 48 NE 8 13 29.99 1016 6 9.65604 0 0
7:56 pm 19:56 Hazy 57 13.8 41 5 56 56 NE 7 11 29.98 1015 6 9.65604 0 0
8:56 pm 20:56 Clear 53 11.6 40 4.4 62 62 NE 5 7 29.98 1015 7 11.26538 0 0
9:56 pm 21:56 Clear 50 10 40 4.4 68 68 NE 3 6 29.99 1016 8 12.87472 0 0
10:56 pm 22:56 Clear 48 8.8 40 4.4 74 74 NNE 5 7 29.99 1016 7 11.26538 0 0
11:56 pm 23:56 Clear 46 7.7 38 3.3 74 74 NE 3 6 29.97 1015 8 12.87472 0 0

Powered by AerisWeather